ERS-1

Last updated on Sun Aug 09 2026 00:02:09 GMT+0000 (Coordinated Universal Time)

1 21574U 91050A 26220.57308745 .00000189 00000+0 74950-4 0 9991 2 21574 98.7797 242.5498 0033017 110.9723 249.5002 14.39546934837580
UTC large
Height (km)
Speed (km/s)
/
Latitude / Longitude
Inclination (degrees)
Orbital Period (minutes)
Azimuth
Elevation
Range (km)
Doppler Factor

Next 0 passes for location: London (51.5072 / 0.1276)

No passes found over London.
ERS-1